{"data":{"norad_id":50159,"epoch":"2026-09-19T22:07:36.905952Z","epoch_age_seconds":95189,"freshness":"FRESH","line1":"1 50159U 21125D   26262.92195493 -.00001339  00000+0 -29413-4 0  9991","line2":"2 50159  53.1585  94.7232 0001074  91.1806 268.9319 15.33542334265940","mean_motion":15.33542334,"eccentricity":0.0001074,"inclination_deg":53.1585,"raan_deg":94.7232,"arg_perigee_deg":91.1806,"mean_anomaly_deg":268.9319,"bstar":-2.9413e-5,"rev_number":26594,"period_min":93.900244425857,"perigee_km":464.51861214223,"apogee_km":465.98857244145,"semimajor_km":6843.3905922918,"source":"CELESTRAK","updated_at":"2026-09-20T09:00:39.413195Z"}}